TimeEST,TemperatureF,Dew PointF,Humidity,Sea Level PressureIn,VisibilityMPH,Wind Direction,Wind SpeedMPH,Gust SpeedMPH,PrecipitationIn,Events,Conditions,WindDirDegrees,DateUTC
12:52 AM,-2.9,-17.0,51,30.00,10.0,NW,10.4,18.4,N/A,,Mostly Cloudy,320,2013-01-23 05:52:00
2:52 AM,-6.0,-17.0,59,30.02,10.0,Variable,5.8,-,N/A,,Clear,0,2013-01-23 07:52:00
3:52 AM,-7.1,-18.0,59,30.02,10.0,Variable,4.6,-,N/A,,Clear,0,2013-01-23 08:52:00
4:52 AM,-7.1,-18.0,59,30.03,10.0,NNW,6.9,16.1,N/A,,Clear,330,2013-01-23 09:52:00
5:19 AM,-7.6,-18.4,59,29.93,10.0,Variable,5.8,-,N/A,,Mostly Cloudy,0,2013-01-23 10:19:00
5:52 AM,-9.0,-18.9,62,30.04,10.0,Variable,4.6,-,N/A,,Mostly Cloudy,0,2013-01-23 10:52:00
6:03 AM,-9.4,-20.2,59,29.94,10.0,Variable,3.5,-,N/A,,Scattered Clouds,0,2013-01-23 11:03:00
6:52 AM,-9.9,-22.0,55,30.07,10.0,WNW,4.6,-,N/A,,Clear,290,2013-01-23 11:52:00
7:52 AM,-9.9,-20.9,59,30.08,10.0,Variable,5.8,-,N/A,,Partly Cloudy,0,2013-01-23 12:52:00
8:52 AM,-9.0,-22.0,53,30.10,10.0,Variable,6.9,19.6,N/A,,Partly Cloudy,0,2013-01-23 13:52:00
9:52 AM,-9.0,-24.0,48,30.11,10.0,WNW,8.1,-,N/A,,Clear,290,2013-01-23 14:52:00
10:52 AM,-7.1,-23.1,46,30.10,10.0,WNW,8.1,16.1,N/A,,Clear,290,2013-01-23 15:52:00
11:52 AM,-5.1,-22.0,44,30.08,10.0,West,9.2,19.6,0.00,,Mostly Cloudy,280,2013-01-23 16:52:00
12:52 PM,-2.9,-22.0,40,30.05,10.0,West,10.4,17.3,N/A,,Clear,280,2013-01-23 17:52:00
1:52 PM,-2.0,-20.9,40,30.06,10.0,WNW,8.1,-,N/A,,Clear,290,2013-01-23 18:52:00
2:52 PM,-0.9,-20.9,38,30.07,10.0,NNW,9.2,-,N/A,,Clear,330,2013-01-23 19:52:00
3:52 PM,-2.0,-22.0,38,30.07,10.0,WNW,6.9,-,N/A,,Clear,290,2013-01-23 20:52:00
4:52 PM,-5.1,-24.0,40,30.08,10.0,West,3.5,-,N/A,,Clear,270,2013-01-23 21:52:00
5:52 PM,-6.0,-23.1,44,30.11,10.0,Calm,Calm,-,N/A,,Clear,0,2013-01-23 22:52:00
6:52 PM,-7.1,-23.1,46,30.12,10.0,West,4.6,-,N/A,,Clear,280,2013-01-23 23:52:00
8:52 PM,-9.0,-23.1,50,30.10,10.0,Variable,3.5,-,N/A,,Clear,0,2013-01-24 01:52:00
9:52 PM,-9.0,-23.1,50,30.11,10.0,Variable,4.6,-,N/A,,Clear,0,2013-01-24 02:52:00
10:52 PM,-9.9,-23.1,52,30.10,10.0,Variable,4.6,-,N/A,,Clear,0,2013-01-24 03:52:00
11:52 PM,-9.9,-23.1,52,30.09,10.0,Variable,4.6,-,N/A,,Clear,0,2013-01-24 04:52:00